Weather History for Western Head, NS

Change the Weather History Date:

Sunday, March 24, 2013

  Actual Average Record
Temperature  
Mean Temperature 36 °F -  
Max Temperature 43 °F - - ()
Min Temperature 28 °F - - ()
Degree Days  
Heating Degree Days 30    
Moisture  
Dew Point 26 °F    
Average Humidity 70    
Maximum Humidity 95    
Minimum Humidity 34    
Precipitation  
Precipitation 0.00 in - - ()
Sea Level Pressure  
Sea Level Pressure 29.57 in    
Wind  
Wind Speed 7 mph ()    
Max Wind Speed 13 mph    
Max Gust Speed 21 mph    
T = Trace of Precipitation, MM = Missing Value Source: Averaged Metar Reports

Daily Weather History Graph

Daily Weather History Graph

Search for Another Location

Airport:

Trip Planner

Search our weather history database for the weather conditions in past years. The results will help you decide how hot, cold, wet, or windy it might be!

Date:

Astronomy

Mar. 24, 2013 Rise Set
Actual Time 7:14 AM ADT 7:36 PM ADT
Civil Twilight 6:45 AM ADT 8:05 PM ADT
Nautical Twilight 6:11 AM ADT 8:39 PM ADT
Astronomical Twilight 5:36 AM ADT 9:14 PM ADT
Moon 4:55 PM ADT (3/24) 5:27 AM ADT (3/24)
Length of Visible Light 13h 19m
Length of Day
12h 22m
Waxing Gibbous, 91% of the Moon is Illuminated
Mar 24
Waxing Gibbous
Mar 27
Full
Apr 3
Last Quarter
Apr 10
New
Apr 18
First Quarter

Hourly Weather History & Observations

Time (ADT) Temp. Windchill Dew Point Humidity Pressure Visibility Wind Dir Wind Speed Gust Speed Precip Events Conditions
12:00 AM 30 °F - 27 °F 84% 29.46 in - WSW 5.8 mph - -  
12:00 AM 30.0 °F 24.1 °F 27.0 °F 88% 29.46 in - WSW 5.8 mph - N/A   Unknown
1:00 AM 31.1 °F 24.5 °F 27.9 °F 88% 29.46 in - West 6.9 mph - N/A   Unknown
2:00 AM 30.0 °F 21.7 °F 28.4 °F 94% 29.45 in - WSW 9.2 mph - N/A   Unknown
3:00 AM 29 °F - 28 °F 93% 29.45 in - WSW 8.1 mph - -  
3:00 AM 29.1 °F 21.3 °F 27.7 °F 94% 29.45 in - WSW 8.1 mph - N/A   Unknown
5:00 AM 30.2 °F 24.3 °F 28.6 °F 94% 29.46 in - West 5.8 mph - N/A   Unknown
6:00 AM 31 °F - 30 °F 93% 29.47 in - West 5.8 mph - -  
6:00 AM 31.3 °F 25.6 °F 29.8 °F 94% 29.47 in - West 5.8 mph - N/A   Unknown
7:00 AM 30.9 °F 25.2 °F 29.7 °F 95% 29.48 in - West 5.8 mph - N/A   Unknown
8:00 AM 31.6 °F 25.1 °F 30.0 °F 94% 29.50 in - WNW 6.9 mph - N/A   Unknown
9:00 AM 35 °F - 31 °F 78% 29.53 in - NW 10.4 mph - -  
9:00 AM 34.5 °F 26.7 °F 30.6 °F 85% 29.53 in - NW 10.4 mph 18.4 mph N/A   Unknown
10:00 AM 34.9 °F 26.2 °F 28.6 °F 78% 29.56 in - NW 12.7 mph 20.7 mph N/A   Unknown
11:00 AM 36.1 °F 27.7 °F 26.4 °F 68% 29.60 in - NNW 12.7 mph 19.6 mph N/A   Unknown
12:00 PM 38 °F - 23 °F 42% 29.61 in - NW 11.5 mph - -  
12:00 PM 38.3 °F 30.9 °F 23.0 °F 54% 29.61 in - NW 11.5 mph 18.4 mph N/A   Unknown
1:00 PM 39.2 °F 31.6 °F 22.5 °F 51% 29.62 in - NW 12.7 mph 20.7 mph N/A   Unknown
2:00 PM 40.3 °F 33.4 °F 22.8 °F 50% 29.62 in - NNW 11.5 mph 18.4 mph N/A   Unknown
3:00 PM 41 °F - 23 °F 35% 29.62 in - North 9.2 mph - -  
3:00 PM 41.2 °F 35.5 °F 22.6 °F 48% 29.62 in - North 9.2 mph 20.7 mph N/A   Unknown
4:00 PM 42.3 °F 37.3 °F 20.7 °F 42% 29.64 in - North 8.1 mph - N/A   Unknown
5:00 PM 40.1 °F 33.6 °F 21.7 °F 48% 29.65 in - NNW 10.4 mph - N/A   Unknown
6:00 PM 41 °F - 22 °F 34% 29.66 in - NW 8.1 mph - -  
6:00 PM 40.6 °F 35.4 °F 22.5 °F 48% 29.66 in - NW 8.1 mph - N/A   Unknown
7:00 PM 37.8 °F 33.3 °F 22.3 °F 54% 29.68 in - NNW 5.8 mph - N/A   Unknown
8:00 PM 34.5 °F 30.4 °F 23.2 °F 63% 29.68 in - NNW 4.6 mph - N/A   Unknown
9:00 PM 31 °F - 22 °F 59% 29.70 in - NW 4.6 mph - -  
9:00 PM 31.5 °F 26.8 °F 22.3 °F 69% 29.70 in - NW 4.6 mph - N/A   Unknown
10:00 PM 30.7 °F 24.1 °F 23.5 °F 75% 29.70 in - NW 6.9 mph - N/A   Unknown
11:00 PM 30.6 °F 23.1 °F 24.3 °F 77% 29.70 in - WNW 8.1 mph - N/A   Unknown